Wetterdaten: Mittwoch, 21.08.2013
Datum Zeit Temperatur Luftfeuchte Luftdruck Regen Wind Richtung Richtung Taupunkt Windchill Windben
21.08.2013 00:00 8,0 C 89 % 1028,6 hPa 0,0 l/m 0,0 km/h (0 Bft) N 360 6,3 C 7,3 C 0,0 km/h (0 Bft)
21.08.2013 00:05 7,8 C 89 % 1028,8 hPa 0,0 l/m 0,0 km/h (0 Bft) NW 315 6,1 C 7,3 C 0,0 km/h (0 Bft)
21.08.2013 00:10 7,5 C 89 % 1028,8 hPa 0,0 l/m 0,0 km/h (0 Bft) NW 315 5,8 C 7,3 C 0,0 km/h (0 Bft)
21.08.2013 00:15 7,5 C 89 % 1028,8 hPa 0,0 l/m 0,0 km/h (0 Bft) N-NO 22 5,8 C 7,2 C 0,0 km/h (0 Bft)
21.08.2013 00:20 7,3 C 89 % 1028,8 hPa 0,0 l/m 0,0 km/h (0 Bft) N-NO 22 5,6 C 6,9 C 0,0 km/h (0 Bft)
21.08.2013 00:25 7,3 C 89 % 1028,6 hPa 0,0 l/m 0,0 km/h (0 Bft) N-NO 22 5,6 C 6,9 C 0,0 km/h (0 Bft)
21.08.2013 00:30 7,5 C 89 % 1028,6 hPa 0,0 l/m 0,0 km/h (0 Bft) N-NO 22 5,8 C 6,8 C 0,0 km/h (0 Bft)
21.08.2013 00:35 7,5 C 89 % 1028,6 hPa 0,0 l/m 0,0 km/h (0 Bft) N 360 5,8 C 6,8 C 0,0 km/h (0 Bft)
21.08.2013 00:40 7,8 C 90 % 1028,6 hPa 0,0 l/m 0,0 km/h (0 Bft) N-NO 22 6,3 C 6,9 C 0,0 km/h (0 Bft)
21.08.2013 00:45 7,6 C 90 % 1028,4 hPa 0,0 l/m 0,0 km/h (0 Bft) W-NW 292 6,1 C 7,0 C 0,0 km/h (0 Bft)
21.08.2013 00:50 7,3 C 90 % 1028,4 hPa 0,0 l/m 0,0 km/h (0 Bft) O-SO 112 5,8 C 6,9 C 0,0 km/h (0 Bft)
21.08.2013 00:55 7,3 C 90 % 1028,4 hPa 0,0 l/m 0,0 km/h (0 Bft) O-SO 112 5,8 C 6,9 C 0,0 km/h (0 Bft)
21.08.2013 01:00 7,1 C 90 % 1028,4 hPa 0,0 l/m 0,0 km/h (0 Bft) O-SO 112 5,6 C 6,8 C 0,0 km/h (0 Bft)
21.08.2013 01:05 7,1 C 90 % 1028,4 hPa 0,0 l/m 0,0 km/h (0 Bft) O-SO 112 5,6 C 6,7 C 0,0 km/h (0 Bft)
21.08.2013 01:10 6,9 C 90 % 1028,4 hPa 0,0 l/m 0,0 km/h (0 Bft) SO 135 5,4 C 6,5 C 0,0 km/h (0 Bft)
21.08.2013 01:15 6,9 C 90 % 1028,4 hPa 0,0 l/m 0,0 km/h (0 Bft) O-SO 112 5,4 C 6,4 C 0,0 km/h (0 Bft)
21.08.2013 01:20 6,9 C 90 % 1028,4 hPa 0,0 l/m 0,0 km/h (0 Bft) O-SO 112 5,4 C 6,3 C 0,0 km/h (0 Bft)
21.08.2013 01:25 7,1 C 90 % 1028,4 hPa 0,0 l/m 0,0 km/h (0 Bft) O-SO 112 5,6 C 6,3 C 0,0 km/h (0 Bft)
21.08.2013 01:30 7,4 C 90 % 1028,4 hPa 0,0 l/m 0,0 km/h (0 Bft) O-NO 67 5,9 C 6,4 C 0,0 km/h (0 Bft)
21.08.2013 01:35 7,2 C 90 % 1028,4 hPa 0,0 l/m 0,0 km/h (0 Bft) O 90 5,7 C 6,4 C 0,0 km/h (0 Bft)
21.08.2013 01:40 7,6 C 90 % 1028,4 hPa 0,0 l/m 1,1 km/h (1 Bft) O 90 6,1 C 6,7 C 2,6 km/h (1 Bft)
21.08.2013 01:45 7,4 C 91 % 1028,1 hPa 0,0 l/m 1,4 km/h (1 Bft) O-SO 112 6,0 C 6,8 C 0,0 km/h (0 Bft)
21.08.2013 01:50 6,8 C 90 % 1028,1 hPa 0,0 l/m 0,5 km/h (0 Bft) O 90 5,3 C 6,6 C 0,0 km/h (0 Bft)
21.08.2013 01:55 6,8 C 90 % 1028,1 hPa 0,0 l/m 0,0 km/h (0 Bft) NO 45 5,3 C 6,4 C 0,0 km/h (0 Bft)
21.08.2013 02:00 6,6 C 90 % 1028,1 hPa 0,0 l/m 0,0 km/h (0 Bft) O 90 5,1 C 6,1 C 0,0 km/h (0 Bft)
21.08.2013 02:05 7,1 C 90 % 1028,1 hPa 0,0 l/m 0,3 km/h (0 Bft) O-NO 67 5,6 C 6,2 C 2,1 km/h (1 Bft)
21.08.2013 02:10 7,2 C 91 % 1028,1 hPa 0,0 l/m 1,9 km/h (1 Bft) O 90 5,8 C 6,6 C 3,9 km/h (1 Bft)
21.08.2013 02:15 7,4 C 91 % 1028,1 hPa 0,0 l/m 3,1 km/h (1 Bft) O 90 6,0 C 6,7 C 4,7 km/h (1 Bft)
21.08.2013 02:20 7,3 C 91 % 1028,1 hPa 0,0 l/m 2,4 km/h (1 Bft) NO 45 5,9 C 6,9 C 4,8 km/h (1 Bft)
21.08.2013 02:25 7,3 C 92 % 1027,8 hPa 0,0 l/m 1,6 km/h (1 Bft) NO 45 6,1 C 6,7 C 0,0 km/h (0 Bft)
21.08.2013 02:30 6,6 C 91 % 1027,8 hPa 0,0 l/m 0,3 km/h (0 Bft) N-NO 22 5,2 C 6,4 C 0,0 km/h (0 Bft)
21.08.2013 02:35 6,5 C 91 % 1027,8 hPa 0,0 l/m 0,0 km/h (0 Bft) N 360 5,1 C 6,2 C 0,0 km/h (0 Bft)
21.08.2013 02:40 6,3 C 91 % 1027,8 hPa 0,0 l/m 0,0 km/h (0 Bft) N-NO 22 4,9 C 6,0 C 0,0 km/h (0 Bft)
21.08.2013 02:45 6,2 C 91 % 1027,8 hPa 0,0 l/m 0,0 km/h (0 Bft) N 360 4,8 C 6,0 C 0,0 km/h (0 Bft)
21.08.2013 02:50 6,4 C 91 % 1027,8 hPa 0,0 l/m 0,0 km/h (0 Bft) O 90 5,0 C 5,9 C 0,0 km/h (0 Bft)
21.08.2013 02:55 6,6 C 91 % 1027,8 hPa 0,0 l/m 0,0 km/h (0 Bft) NO 45 5,2 C 5,9 C 0,0 km/h (0 Bft)
21.08.2013 03:00 6,7 C 91 % 1027,8 hPa 0,0 l/m 0,0 km/h (0 Bft) NO 45 5,3 C 6,0 C 0,0 km/h (0 Bft)
21.08.2013 03:05 6,8 C 91 % 1027,6 hPa 0,0 l/m 0,0 km/h (0 Bft) O 90 5,4 C 6,2 C 0,0 km/h (0 Bft)
21.08.2013 03:10 6,7 C 92 % 1027,6 hPa 0,0 l/m 0,0 km/h (0 Bft) N-NO 22 5,5 C 6,3 C 0,0 km/h (0 Bft)
21.08.2013 03:15 6,5 C 91 % 1027,6 hPa 0,0 l/m 0,0 km/h (0 Bft) N-NO 22 5,1 C 6,2 C 0,0 km/h (0 Bft)
21.08.2013 03:20 6,4 C 91 % 1027,6 hPa 0,0 l/m 0,0 km/h (0 Bft) O-SO 112 5,0 C 6,1 C 0,0 km/h (0 Bft)
21.08.2013 03:25 6,0 C 91 % 1027,4 hPa 0,0 l/m 0,0 km/h (0 Bft) N-NW 337 4,6 C 6,1 C 0,0 km/h (0 Bft)
21.08.2013 03:30 6,1 C 91 % 1027,4 hPa 0,0 l/m 0,0 km/h (0 Bft) N 360 4,7 C 5,7 C 0,0 km/h (0 Bft)
21.08.2013 03:35 5,9 C 92 % 1027,4 hPa 0,0 l/m 0,0 km/h (0 Bft) N 360 4,7 C 5,6 C 0,0 km/h (0 Bft)
21.08.2013 03:40 5,7 C 92 % 1027,4 hPa 0,0 l/m 0,0 km/h (0 Bft) N 360 4,5 C 5,4 C 0,0 km/h (0 Bft)
21.08.2013 03:45 5,8 C 92 % 1027,4 hPa 0,0 l/m 0,0 km/h (0 Bft) O-NO 67 4,6 C 5,3 C 0,0 km/h (0 Bft)
21.08.2013 03:50 6,5 C 91 % 1027,4 hPa 0,0 l/m 0,0 km/h (0 Bft) W-NW 292 5,1 C 5,8 C 0,0 km/h (0 Bft)
21.08.2013 03:55 6,7 C 92 % 1027,4 hPa 0,0 l/m 0,0 km/h (0 Bft) W-NW 292 5,5 C 6,1 C 0,0 km/h (0 Bft)
21.08.2013 04:00 7,0 C 92 % 1027,4 hPa 0,0 l/m 0,0 km/h (0 Bft) N-NO 22 5,8 C 6,7 C 0,0 km/h (0 Bft)
21.08.2013 04:05 7,2 C 92 % 1027,3 hPa 0,0 l/m 0,0 km/h (0 Bft) W 270 6,0 C 6,9 C 0,0 km/h (0 Bft)
21.08.2013 04:10 7,1 C 92 % 1027,3 hPa 0,0 l/m 0,0 km/h (0 Bft) W 270 5,9 C 7,0 C 0,0 km/h (0 Bft)
21.08.2013 04:15 7,3 C 92 % 1027,3 hPa 0,0 l/m 0,0 km/h (0 Bft) W-NW 292 6,1 C 7,0 C 0,0 km/h (0 Bft)
21.08.2013 04:20 7,2 C 92 % 1027,3 hPa 0,0 l/m 0,0 km/h (0 Bft) W 270 6,0 C 7,1 C 0,0 km/h (0 Bft)
21.08.2013 04:25 7,4 C 92 % 1027,4 hPa 0,0 l/m 0,0 km/h (0 Bft) N 360 6,2 C 7,3 C 0,0 km/h (0 Bft)
21.08.2013 04:30 7,6 C 92 % 1027,4 hPa 0,0 l/m 0,0 km/h (0 Bft) NW 315 6,4 C 7,4 C 0,0 km/h (0 Bft)
21.08.2013 04:35 7,7 C 92 % 1027,4 hPa 0,0 l/m 0,0 km/h (0 Bft) O-NO 67 6,5 C 7,6 C 0,0 km/h (0 Bft)
21.08.2013 04:40 8,1 C 92 % 1027,4 hPa 0,0 l/m 0,3 km/h (0 Bft) N 360 6,9 C 7,9 C 0,0 km/h (0 Bft)
21.08.2013 04:45 8,1 C 92 % 1027,2 hPa 0,0 l/m 0,3 km/h (0 Bft) NO 45 6,9 C 8,0 C 0,0 km/h (0 Bft)
21.08.2013 04:50 8,1 C 92 % 1027,2 hPa 0,0 l/m 0,5 km/h (0 Bft) O-SO 112 6,9 C 8,1 C 0,0 km/h (0 Bft)
21.08.2013 04:55 8,0 C 92 % 1027,2 hPa 0,0 l/m 0,6 km/h (0 Bft) O-SO 112 6,8 C 8,1 C 2,9 km/h (1 Bft)
21.08.2013 05:00 7,7 C 92 % 1027,2 hPa 0,0 l/m 1,1 km/h (1 Bft) O-NO 67 6,5 C 7,9 C 0,0 km/h (0 Bft)
21.08.2013 05:05 7,6 C 92 % 1027,1 hPa 0,0 l/m 1,1 km/h (1 Bft) O-NO 67 6,4 C 7,8 C 0,0 km/h (0 Bft)
21.08.2013 05:10 7,7 C 92 % 1027,1 hPa 0,0 l/m 1,1 km/h (1 Bft) O 90 6,5 C 7,7 C 2,3 km/h (1 Bft)
21.08.2013 05:15 7,7 C 92 % 1027,1 hPa 0,0 l/m 1,6 km/h (1 Bft) N-NO 22 6,5 C 7,7 C 1,9 km/h (1 Bft)
21.08.2013 05:20 7,7 C 92 % 1027,1 hPa 0,0 l/m 1,4 km/h (1 Bft) O 90 6,5 C 7,7 C 1,8 km/h (1 Bft)
21.08.2013 05:25 7,7 C 92 % 1027,0 hPa 0,0 l/m 1,1 km/h (1 Bft) SW 225 6,5 C 7,7 C 1,9 km/h (1 Bft)
21.08.2013 05:30 7,7 C 92 % 1027,0 hPa 0,0 l/m 0,5 km/h (0 Bft) SW 225 6,5 C 7,7 C 0,0 km/h (0 Bft)
21.08.2013 05:35 7,4 C 92 % 1027,0 hPa 0,0 l/m 0,2 km/h (0 Bft) S 180 6,2 C 7,6 C 0,0 km/h (0 Bft)
21.08.2013 05:40 7,1 C 92 % 1027,0 hPa 0,0 l/m 0,2 km/h (0 Bft) S-SO 157 5,9 C 7,3 C 0,0 km/h (0 Bft)
21.08.2013 05:45 6,9 C 92 % 1026,8 hPa 0,0 l/m 0,0 km/h (0 Bft) S 180 5,7 C 7,0 C 0,0 km/h (0 Bft)
21.08.2013 05:50 6,7 C 92 % 1026,8 hPa 0,0 l/m 0,0 km/h (0 Bft) NO 45 5,5 C 6,6 C 0,0 km/h (0 Bft)
21.08.2013 05:55 6,4 C 92 % 1026,8 hPa 0,0 l/m 0,0 km/h (0 Bft) NO 45 5,2 C 6,3 C 0,0 km/h (0 Bft)
21.08.2013 06:00 6,3 C 91 % 1026,8 hPa 0,0 l/m 0,0 km/h (0 Bft) NO 45 4,9 C 6,0 C 0,0 km/h (0 Bft)
21.08.2013 06:05 6,4 C 92 % 1026,7 hPa 0,0 l/m 0,0 km/h (0 Bft) N-NO 22 5,2 C 6,0 C 0,0 km/h (0 Bft)
21.08.2013 06:10 6,4 C 92 % 1026,7 hPa 0,0 l/m 0,0 km/h (0 Bft) NO 45 5,2 C 6,0 C 0,0 km/h (0 Bft)
21.08.2013 06:15 6,4 C 92 % 1026,7 hPa 0,0 l/m 0,0 km/h (0 Bft) N 360 5,2 C 6,0 C 0,0 km/h (0 Bft)
21.08.2013 06:20 6,4 C 92 % 1026,7 hPa 0,0 l/m 0,0 km/h (0 Bft) N 360 5,2 C 6,1 C 0,0 km/h (0 Bft)
21.08.2013 06:25 6,4 C 92 % 1026,6 hPa 0,0 l/m 0,0 km/h (0 Bft) NO 45 5,2 C 6,1 C 0,0 km/h (0 Bft)
21.08.2013 06:30 6,4 C 92 % 1026,6 hPa 0,0 l/m 0,0 km/h (0 Bft) N-NW 337 5,2 C 6,0 C 0,0 km/h (0 Bft)
21.08.2013 06:35 6,3 C 92 % 1026,6 hPa 0,0 l/m 0,0 km/h (0 Bft) N-NO 22 5,1 C 5,9 C 0,0 km/h (0 Bft)
21.08.2013 06:40 6,2 C 92 % 1026,6 hPa 0,0 l/m 0,0 km/h (0 Bft) S 180 5,0 C 5,8 C 0,0 km/h (0 Bft)
21.08.2013 06:45 6,1 C 92 % 1026,6 hPa 0,0 l/m 0,0 km/h (0 Bft) O-SO 112 4,9 C 5,8 C 0,0 km/h (0 Bft)
21.08.2013 06:50 6,2 C 92 % 1026,6 hPa 0,0 l/m 0,0 km/h (0 Bft) O-SO 112 5,0 C 5,7 C 0,0 km/h (0 Bft)
21.08.2013 06:55 6,2 C 92 % 1026,6 hPa 0,0 l/m 0,0 km/h (0 Bft) O 90 5,0 C 5,8 C 0,0 km/h (0 Bft)
21.08.2013 07:00 6,4 C 92 % 1026,6 hPa 0,0 l/m 0,0 km/h (0 Bft) O-NO 67 5,2 C 6,0 C 0,0 km/h (0 Bft)
21.08.2013 07:05 6,6 C 92 % 1026,6 hPa 0,0 l/m 0,0 km/h (0 Bft) O 90 5,4 C 6,2 C 0,0 km/h (0 Bft)
21.08.2013 07:10 6,9 C 92 % 1026,6 hPa 0,0 l/m 0,0 km/h (0 Bft) O 90 5,7 C 6,6 C 0,0 km/h (0 Bft)
21.08.2013 07:15 7,2 C 92 % 1026,6 hPa 0,0 l/m 0,0 km/h (0 Bft) S 180 6,0 C 6,8 C 0,0 km/h (0 Bft)
21.08.2013 07:20 7,3 C 92 % 1026,6 hPa 0,0 l/m 0,0 km/h (0 Bft) W-SW 247 6,1 C 7,1 C 0,0 km/h (0 Bft)
21.08.2013 07:25 7,5 C 92 % 1026,5 hPa 0,0 l/m 0,0 km/h (0 Bft) S-SW 202 6,3 C 7,3 C 0,0 km/h (0 Bft)
21.08.2013 07:30 7,7 C 92 % 1026,5 hPa 0,0 l/m 0,0 km/h (0 Bft) W-SW 247 6,5 C 7,6 C 0,0 km/h (0 Bft)
21.08.2013 07:35 7,9 C 92 % 1026,5 hPa 0,0 l/m 0,0 km/h (0 Bft) W-SW 247 6,7 C 7,7 C 0,0 km/h (0 Bft)
21.08.2013 07:40 8,2 C 92 % 1026,5 hPa 0,0 l/m 0,0 km/h (0 Bft) W-SW 247 7,0 C 7,9 C 0,0 km/h (0 Bft)
21.08.2013 07:45 8,4 C 92 % 1026,5 hPa 0,0 l/m 0,0 km/h (0 Bft) S-SW 202 7,2 C 8,2 C 0,0 km/h (0 Bft)
21.08.2013 07:50 8,8 C 92 % 1026,5 hPa 0,0 l/m 0,0 km/h (0 Bft) SO 135 7,6 C 8,7 C 0,0 km/h (0 Bft)
21.08.2013 07:55 9,1 C 92 % 1026,5 hPa 0,0 l/m 0,0 km/h (0 Bft) W-SW 247 7,9 C 8,9 C 0,0 km/h (0 Bft)
21.08.2013 08:00 9,2 C 92 % 1026,5 hPa 0,0 l/m 0,0 km/h (0 Bft) S 180 8,0 C 9,1 C 0,0 km/h (0 Bft)
21.08.2013 08:05 9,4 C 92 % 1026,3 hPa 0,0 l/m 0,0 km/h (0 Bft) N-NW 337 8,2 C 9,5 C 0,0 km/h (0 Bft)
21.08.2013 08:10 9,4 C 92 % 1026,3 hPa 0,0 l/m 0,5 km/h (0 Bft) W-SW 247 8,2 C 9,8 C 0,0 km/h (0 Bft)
21.08.2013 08:15 9,4 C 92 % 1026,3 hPa 0,0 l/m 0,6 km/h (0 Bft) N 360 8,2 C 10,0 C 0,0 km/h (0 Bft)
21.08.2013 08:20 9,3 C 91 % 1026,3 hPa 0,0 l/m 1,1 km/h (1 Bft) NW 315 7,9 C 9,9 C 0,0 km/h (0 Bft)
21.08.2013 08:25 9,6 C 91 % 1026,5 hPa 0,0 l/m 1,4 km/h (1 Bft) O 90 8,2 C 10,0 C 0,0 km/h (0 Bft)
21.08.2013 08:30 10,0 C 91 % 1026,5 hPa 0,0 l/m 1,1 km/h (1 Bft) W-NW 292 8,6 C 10,3 C 2,6 km/h (1 Bft)
21.08.2013 08:35 10,0 C 91 % 1026,5 hPa 0,0 l/m 1,8 km/h (1 Bft) W-SW 247 8,6 C 10,4 C 3,7 km/h (1 Bft)
21.08.2013 08:40 10,2 C 90 % 1026,5 hPa 0,0 l/m 2,4 km/h (1 Bft) W-SW 247 8,6 C 10,7 C 6,6 km/h (2 Bft)
21.08.2013 08:45 10,1 C 90 % 1026,2 hPa 0,0 l/m 2,3 km/h (1 Bft) NO 45 8,5 C 10,7 C 2,6 km/h (1 Bft)
21.08.2013 08:50 10,5 C 89 % 1026,2 hPa 0,0 l/m 2,4 km/h (1 Bft) N 360 8,8 C 10,9 C 2,9 km/h (1 Bft)
21.08.2013 08:55 10,8 C 89 % 1026,2 hPa 0,0 l/m 1,9 km/h (1 Bft) N-NW 337 9,1 C 11,3 C 1,8 km/h (1 Bft)
21.08.2013 09:00 11,0 C 87 % 1026,2 hPa 0,0 l/m 2,7 km/h (1 Bft) N-NW 337 8,9 C 11,8 C 7,4 km/h (2 Bft)
21.08.2013 09:05 11,4 C 86 % 1026,3 hPa 0,0 l/m 3,1 km/h (1 Bft) NO 45 9,1 C 12,1 C 3,9 km/h (1 Bft)
21.08.2013 09:10 11,0 C 86 % 1026,3 hPa 0,0 l/m 2,6 km/h (1 Bft) N-NO 22 8,7 C 12,2 C 3,4 km/h (1 Bft)
21.08.2013 09:15 11,5 C 85 % 1026,3 hPa 0,0 l/m 2,3 km/h (1 Bft) N 360 9,1 C 12,1 C 3,1 km/h (1 Bft)
21.08.2013 09:20 11,5 C 84 % 1026,3 hPa 0,0 l/m 2,9 km/h (1 Bft) W-NW 292 8,9 C 12,4 C 5,6 km/h (1 Bft)
21.08.2013 09:25 11,4 C 83 % 1026,4 hPa 0,0 l/m 3,5 km/h (1 Bft) N 360 8,6 C 12,2 C 6,9 km/h (2 Bft)
21.08.2013 09:30 11,5 C 83 % 1026,4 hPa 0,0 l/m 3,9 km/h (1 Bft) NW 315 8,7 C 12,3 C 7,6 km/h (2 Bft)
21.08.2013 09:35 11,8 C 83 % 1026,4 hPa 0,0 l/m 3,2 km/h (1 Bft) W-NW 292 9,0 C 12,4 C 2,3 km/h (1 Bft)
21.08.2013 09:40 13,2 C 81 % 1026,4 hPa 0,0 l/m 3,2 km/h (1 Bft) W-NW 292 10,0 C 13,3 C 4,3 km/h (1 Bft)
21.08.2013 09:45 13,5 C 79 % 1026,6 hPa 0,0 l/m 2,7 km/h (1 Bft) N-NW 337 9,9 C 14,4 C 2,3 km/h (1 Bft)
21.08.2013 09:50 14,2 C 76 % 1026,6 hPa 0,0 l/m 2,7 km/h (1 Bft) N-NW 337 10,0 C 14,7 C 7,7 km/h (2 Bft)
21.08.2013 09:55 14,8 C 76 % 1026,6 hPa 0,0 l/m 2,9 km/h (1 Bft) N-NW 337 10,6 C 15,2 C 4,3 km/h (1 Bft)
21.08.2013 10:00 16,8 C 67 % 1026,6 hPa 0,0 l/m 3,2 km/h (1 Bft) W-NW 292 10,6 C 16,5 C 4,3 km/h (1 Bft)
21.08.2013 10:05 15,6 C 67 % 1026,7 hPa 0,0 l/m 3,4 km/h (1 Bft) N-NW 337 9,5 C 16,9 C 6,9 km/h (2 Bft)
21.08.2013 10:10 17,6 C 66 % 1026,7 hPa 0,0 l/m 3,2 km/h (1 Bft) W-SW 247 11,2 C 17,3 C 0,0 km/h (0 Bft)
21.08.2013 10:15 17,9 C 59 % 1026,7 hPa 0,0 l/m 3,1 km/h (1 Bft) O 90 9,8 C 18,1 C 2,9 km/h (1 Bft)
21.08.2013 10:20 17,8 C 58 % 1026,7 hPa 0,0 l/m 4,2 km/h (1 Bft) NW 315 9,4 C 17,9 C 9,2 km/h (2 Bft)
21.08.2013 10:25 17,8 C 59 % 1026,5 hPa 0,0 l/m 5,1 km/h (1 Bft) N 360 9,7 C 17,9 C 6,1 km/h (2 Bft)
21.08.2013 10:30 18,6 C 57 % 1026,5 hPa 0,0 l/m 4,7 km/h (1 Bft) W-NW 292 9,9 C 18,3 C 4,3 km/h (1 Bft)
21.08.2013 10:35 18,1 C 55 % 1026,5 hPa 0,0 l/m 3,9 km/h (1 Bft) W-NW 292 8,9 C 18,9 C 3,1 km/h (1 Bft)
21.08.2013 10:40 17,8 C 55 % 1026,5 hPa 0,0 l/m 4,0 km/h (1 Bft) W-NW 292 8,6 C 19,3 C 9,5 km/h (2 Bft)
21.08.2013 10:45 18,1 C 55 % 1026,5 hPa 0,0 l/m 4,2 km/h (1 Bft) W-NW 292 8,9 C 19,6 C 7,1 km/h (2 Bft)
21.08.2013 10:50 18,5 C 53 % 1026,5 hPa 0,0 l/m 5,0 km/h (1 Bft) W 270 8,7 C 19,2 C 9,8 km/h (2 Bft)
21.08.2013 10:55 18,1 C 52 % 1026,5 hPa 0,0 l/m 5,5 km/h (1 Bft) O-NO 67 8,1 C 19,3 C 5,3 km/h (1 Bft)
21.08.2013 11:00 18,3 C 52 % 1026,5 hPa 0,0 l/m 5,0 km/h (1 Bft) NW 315 8,3 C 19,4 C 10,3 km/h (2 Bft)
21.08.2013 11:05 18,0 C 52 % 1027,2 hPa 0,0 l/m 5,1 km/h (1 Bft) NO 45 8,0 C 19,6 C 6,0 km/h (2 Bft)
21.08.2013 11:10 18,1 C 52 % 1027,2 hPa 0,0 l/m 5,3 km/h (1 Bft) N-NO 22 8,1 C 19,5 C 12,1 km/h (2 Bft)
21.08.2013 11:15 18,8 C 50 % 1027,2 hPa 0,0 l/m 5,8 km/h (2 Bft) W 270 8,2 C 19,3 C 6,0 km/h (2 Bft)
21.08.2013 11:20 18,9 C 49 % 1027,2 hPa 0,0 l/m 6,0 km/h (2 Bft) NW 315 7,9 C 18,9 C 5,0 km/h (1 Bft)
21.08.2013 11:25 18,6 C 50 % 1027,4 hPa 0,0 l/m 6,4 km/h (2 Bft) N 360 8,0 C 18,8 C 8,9 km/h (2 Bft)
21.08.2013 11:30 18,9 C 50 % 1027,4 hPa 0,0 l/m 6,4 km/h (2 Bft) NO 45 8,2 C 18,4 C 7,6 km/h (2 Bft)
21.08.2013 11:35 19,7 C 50 % 1027,4 hPa 0,0 l/m 5,8 km/h (2 Bft) W-NW 292 9,0 C 18,4 C 11,3 km/h (2 Bft)
21.08.2013 11:40 20,3 C 50 % 1027,4 hPa 0,0 l/m 6,1 km/h (2 Bft) W-NW 292 9,5 C 18,0 C 3,4 km/h (1 Bft)
21.08.2013 11:45 20,3 C 49 % 1027,4 hPa 0,0 l/m 6,4 km/h (2 Bft) NW 315 9,2 C 18,0 C 4,8 km/h (1 Bft)
21.08.2013 11:50 20,4 C 49 % 1027,4 hPa 0,0 l/m 5,3 km/h (1 Bft) W-NW 292 9,3 C 18,5 C 13,4 km/h (3 Bft)
21.08.2013 11:55 20,5 C 49 % 1027,4 hPa 0,0 l/m 6,1 km/h (2 Bft) N-NW 337 9,4 C 19,2 C 12,4 km/h (3 Bft)
21.08.2013 12:00 20,4 C 51 % 1027,4 hPa 0,0 l/m 7,1 km/h (2 Bft) N-NO 22 9,9 C 19,7 C 10,3 km/h (2 Bft)
21.08.2013 12:05 20,9 C 49 % 1027,6 hPa 0,0 l/m 6,3 km/h (2 Bft) N-NW 337 9,8 C 20,6 C 7,1 km/h (2 Bft)
21.08.2013 12:10 19,6 C 51 % 1027,6 hPa 0,0 l/m 5,3 km/h (1 Bft) N 360 9,2 C 20,8 C 7,6 km/h (2 Bft)
21.08.2013 12:15 20,4 C 52 % 1027,6 hPa 0,0 l/m 5,5 km/h (1 Bft) N-NW 337 10,2 C 20,6 C 7,2 km/h (2 Bft)
21.08.2013 12:20 18,3 C 55 % 1027,6 hPa 0,0 l/m 4,8 km/h (1 Bft) N 360 9,1 C 19,6 C 2,3 km/h (1 Bft)
21.08.2013 12:25 18,8 C 56 % 1027,1 hPa 0,0 l/m 4,2 km/h (1 Bft) W-NW 292 9,8 C 19,2 C 4,3 km/h (1 Bft)
21.08.2013 12:30 19,4 C 51 % 1027,1 hPa 0,0 l/m 4,0 km/h (1 Bft) W-SW 247 9,0 C 19,4 C 2,1 km/h (1 Bft)
21.08.2013 12:35 19,3 C 53 % 1027,1 hPa 0,0 l/m 4,7 km/h (1 Bft) W-NW 292 9,5 C 20,2 C 7,7 km/h (2 Bft)
21.08.2013 12:40 18,2 C 55 % 1027,1 hPa 0,0 l/m 4,7 km/h (1 Bft) NW 315 9,0 C 19,6 C 5,1 km/h (1 Bft)
21.08.2013 12:45 17,7 C 56 % 1027,0 hPa 0,0 l/m 4,8 km/h (1 Bft) O 90 8,8 C 19,1 C 5,6 km/h (1 Bft)
21.08.2013 12:50 19,5 C 53 % 1027,0 hPa 0,0 l/m 3,7 km/h (1 Bft) N 360 9,7 C 19,1 C 3,7 km/h (1 Bft)
21.08.2013 12:55 20,4 C 50 % 1027,0 hPa 0,0 l/m 3,9 km/h (1 Bft) N 360 9,6 C 20,8 C 6,8 km/h (2 Bft)
21.08.2013 13:00 20,8 C 49 % 1027,0 hPa 0,0 l/m 4,2 km/h (1 Bft) W-SW 247 9,7 C 22,3 C 2,6 km/h (1 Bft)
21.08.2013 13:05 21,4 C 48 % 1027,0 hPa 0,0 l/m 4,2 km/h (1 Bft) NW 315 9,9 C 23,3 C 11,1 km/h (2 Bft)
21.08.2013 13:10 21,4 C 47 % 1027,0 hPa 0,0 l/m 4,7 km/h (1 Bft) N 360 9,6 C 23,2 C 5,3 km/h (1 Bft)
21.08.2013 13:15 20,1 C 49 % 1027,0 hPa 0,0 l/m 5,8 km/h (2 Bft) W-NW 292 9,0 C 22,9 C 6,4 km/h (2 Bft)
21.08.2013 13:20 18,8 C 52 % 1027,0 hPa 0,0 l/m 6,0 km/h (2 Bft) W 270 8,7 C 21,5 C 6,4 km/h (2 Bft)
21.08.2013 13:25 20,6 C 49 % 1027,1 hPa 0,0 l/m 5,5 km/h (1 Bft) W-NW 292 9,5 C 21,0 C 8,4 km/h (2 Bft)
21.08.2013 13:30 20,7 C 47 % 1027,1 hPa 0,0 l/m 6,1 km/h (2 Bft) N 360 9,0 C 21,8 C 13,5 km/h (3 Bft)
21.08.2013 13:35 20,2 C 48 % 1027,1 hPa 0,0 l/m 6,9 km/h (2 Bft) SW 225 8,8 C 21,4 C 5,8 km/h (2 Bft)
21.08.2013 13:40 19,4 C 50 % 1027,1 hPa 0,0 l/m 6,8 km/h (2 Bft) W-NW 292 8,7 C 21,5 C 6,3 km/h (2 Bft)
21.08.2013 13:45 19,9 C 51 % 1026,9 hPa 0,0 l/m 5,8 km/h (2 Bft) W-NW 292 9,5 C 20,7 C 6,1 km/h (2 Bft)
21.08.2013 13:50 20,8 C 50 % 1026,9 hPa 0,0 l/m 5,1 km/h (1 Bft) NO 45 10,0 C 21,2 C 8,4 km/h (2 Bft)
21.08.2013 13:55 21,0 C 51 % 1026,9 hPa 0,0 l/m 6,0 km/h (2 Bft) NO 45 10,5 C 21,7 C 11,7 km/h (2 Bft)
21.08.2013 14:00 21,2 C 48 % 1026,9 hPa 0,0 l/m 5,8 km/h (2 Bft) W 270 9,7 C 22,3 C 7,1 km/h (2 Bft)
21.08.2013 14:05 21,5 C 47 % 1027,0 hPa 0,0 l/m 5,8 km/h (2 Bft) W-NW 292 9,7 C 22,4 C 8,4 km/h (2 Bft)
21.08.2013 14:10 21,0 C 46 % 1027,0 hPa 0,0 l/m 5,8 km/h (2 Bft) N-NW 337 8,9 C 23,1 C 8,4 km/h (2 Bft)
21.08.2013 14:15 21,3 C 47 % 1027,0 hPa 0,0 l/m 5,5 km/h (1 Bft) N-NW 337 9,5 C 23,1 C 4,3 km/h (1 Bft)
21.08.2013 14:20 21,5 C 47 % 1027,0 hPa 0,0 l/m 6,0 km/h (2 Bft) W-NW 292 9,7 C 23,1 C 6,1 km/h (2 Bft)
21.08.2013 14:25 21,7 C 46 % 1026,9 hPa 0,0 l/m 6,3 km/h (2 Bft) NW 315 9,6 C 23,0 C 4,8 km/h (1 Bft)
21.08.2013 14:30 21,6 C 46 % 1026,9 hPa 0,0 l/m 5,3 km/h (1 Bft) N-NW 337 9,5 C 23,1 C 3,9 km/h (1 Bft)
21.08.2013 14:35 21,3 C 46 % 1026,9 hPa 0,0 l/m 5,1 km/h (1 Bft) S-SW 202 9,2 C 23,5 C 8,9 km/h (2 Bft)
21.08.2013 14:40 21,4 C 49 % 1026,9 hPa 0,0 l/m 5,1 km/h (1 Bft) W 270 10,2 C 23,2 C 9,8 km/h (2 Bft)
21.08.2013 14:45 21,8 C 49 % 1026,8 hPa 0,0 l/m 5,6 km/h (1 Bft) N-NW 337 10,6 C 23,1 C 7,4 km/h (2 Bft)
21.08.2013 14:50 21,6 C 46 % 1026,8 hPa 0,0 l/m 6,0 km/h (2 Bft) N-NW 337 9,5 C 23,4 C 10,0 km/h (2 Bft)
21.08.2013 14:55 21,6 C 46 % 1026,8 hPa 0,0 l/m 5,0 km/h (1 Bft) N 360 9,5 C 23,5 C 11,6 km/h (2 Bft)
21.08.2013 15:00 21,1 C 47 % 1026,8 hPa 0,0 l/m 5,3 km/h (1 Bft) W-NW 292 9,3 C 23,6 C 5,5 km/h (1 Bft)
21.08.2013 15:05 21,6 C 46 % 1026,9 hPa 0,0 l/m 5,8 km/h (2 Bft) W-NW 292 9,5 C 23,4 C 6,6 km/h (2 Bft)
21.08.2013 15:10 21,6 C 46 % 1026,9 hPa 0,0 l/m 6,8 km/h (2 Bft) NW 315 9,5 C 23,4 C 8,2 km/h (2 Bft)
21.08.2013 15:15 21,5 C 46 % 1026,9 hPa 0,0 l/m 6,3 km/h (2 Bft) O 90 9,4 C 23,5 C 8,4 km/h (2 Bft)
21.08.2013 15:20 21,8 C 47 % 1026,9 hPa 0,0 l/m 5,5 km/h (1 Bft) N-NW 337 10,0 C 23,9 C 7,6 km/h (2 Bft)
21.08.2013 15:25 21,5 C 47 % 1026,6 hPa 0,0 l/m 5,8 km/h (2 Bft) S-SW 202 9,7 C 23,4 C 9,8 km/h (2 Bft)
21.08.2013 15:30 21,7 C 46 % 1026,6 hPa 0,0 l/m 6,0 km/h (2 Bft) W-NW 292 9,6 C 23,3 C 14,3 km/h (3 Bft)
21.08.2013 15:35 21,7 C 48 % 1026,6 hPa 0,0 l/m 5,6 km/h (1 Bft) NO 45 10,2 C 23,5 C 9,8 km/h (2 Bft)
21.08.2013 15:40 21,5 C 47 % 1026,6 hPa 0,0 l/m 6,1 km/h (2 Bft) N 360 9,7 C 23,5 C 11,1 km/h (2 Bft)
21.08.2013 15:45 21,6 C 46 % 1026,6 hPa 0,0 l/m 6,4 km/h (2 Bft) N-NO 22 9,5 C 23,4 C 5,5 km/h (1 Bft)
21.08.2013 15:50 21,5 C 48 % 1026,6 hPa 0,0 l/m 5,6 km/h (1 Bft) N 360 10,0 C 23,6 C 5,1 km/h (1 Bft)
21.08.2013 15:55 21,2 C 48 % 1026,6 hPa 0,0 l/m 5,3 km/h (1 Bft) O-SO 112 9,7 C 23,9 C 7,6 km/h (2 Bft)
21.08.2013 16:00 21,1 C 47 % 1026,6 hPa 0,0 l/m 5,6 km/h (1 Bft) N-NW 337 9,3 C 24,0 C 7,2 km/h (2 Bft)
21.08.2013 16:05 21,3 C 48 % 1026,4 hPa 0,0 l/m 5,8 km/h (2 Bft) N 360 9,8 C 24,2 C 4,7 km/h (1 Bft)
21.08.2013 16:10 21,3 C 47 % 1026,4 hPa 0,0 l/m 5,8 km/h (2 Bft) N-NW 337 9,5 C 24,0 C 5,3 km/h (1 Bft)
21.08.2013 16:15 21,0 C 47 % 1026,4 hPa 0,0 l/m 5,8 km/h (2 Bft) N 360 9,3 C 24,2 C 7,4 km/h (2 Bft)
21.08.2013 16:20 21,2 C 48 % 1026,4 hPa 0,0 l/m 5,8 km/h (2 Bft) N-NW 337 9,7 C 24,2 C 5,8 km/h (2 Bft)
21.08.2013 16:25 21,4 C 47 % 1026,3 hPa 0,0 l/m 5,3 km/h (1 Bft) N-NO 22 9,6 C 24,2 C 3,4 km/h (1 Bft)
21.08.2013 16:30 21,2 C 48 % 1026,3 hPa 0,0 l/m 4,5 km/h (1 Bft) N 360 9,7 C 24,6 C 4,8 km/h (1 Bft)
21.08.2013 16:35 20,3 C 49 % 1026,3 hPa 0,0 l/m 5,3 km/h (1 Bft) N-NO 22 9,2 C 24,4 C 6,6 km/h (2 Bft)
21.08.2013 16:40 20,3 C 50 % 1026,3 hPa 0,0 l/m 5,3 km/h (1 Bft) N-NW 337 9,5 C 24,4 C 11,9 km/h (2 Bft)
21.08.2013 16:45 19,9 C 52 % 1026,1 hPa 0,0 l/m 5,3 km/h (1 Bft) W 270 9,7 C 24,2 C 6,1 km/h (2 Bft)
21.08.2013 16:50 19,8 C 54 % 1026,1 hPa 0,0 l/m 5,5 km/h (1 Bft) N-NW 337 10,2 C 24,3 C 8,0 km/h (2 Bft)
21.08.2013 16:55 19,7 C 53 % 1026,1 hPa 0,0 l/m 5,5 km/h (1 Bft) N-NW 337 9,8 C 24,2 C 11,4 km/h (2 Bft)
21.08.2013 17:00 19,3 C 53 % 1026,1 hPa 0,0 l/m 6,1 km/h (2 Bft) W 270 9,5 C 23,9 C 6,0 km/h (2 Bft)
21.08.2013 17:05 19,3 C 54 % 1025,8 hPa 0,0 l/m 5,8 km/h (2 Bft) N 360 9,8 C 23,9 C 12,1 km/h (2 Bft)
21.08.2013 17:10 19,2 C 54 % 1025,8 hPa 0,0 l/m 5,6 km/h (1 Bft) N 360 9,7 C 23,8 C 6,3 km/h (2 Bft)
21.08.2013 17:15 19,0 C 54 % 1025,8 hPa 0,0 l/m 5,6 km/h (1 Bft) N-NW 337 9,5 C 23,7 C 8,0 km/h (2 Bft)
21.08.2013 17:20 19,0 C 55 % 1025,8 hPa 0,0 l/m 5,0 km/h (1 Bft) N-NO 22 9,8 C 23,9 C 4,5 km/h (1 Bft)
21.08.2013 17:25 18,9 C 55 % 1026,0 hPa 0,0 l/m 5,8 km/h (2 Bft) W-NW 292 9,7 C 23,7 C 11,7 km/h (2 Bft)
21.08.2013 17:30 18,8 C 56 % 1026,0 hPa 0,0 l/m 5,6 km/h (1 Bft) N-NW 337 9,8 C 23,4 C 4,8 km/h (1 Bft)
21.08.2013 17:35 18,7 C 55 % 1026,0 hPa 0,0 l/m 5,6 km/h (1 Bft) W-NW 292 9,5 C 23,7 C 8,2 km/h (2 Bft)
21.08.2013 17:40 18,7 C 56 % 1026,0 hPa 0,0 l/m 5,3 km/h (1 Bft) N-NW 337 9,7 C 23,2 C 6,4 km/h (2 Bft)
21.08.2013 17:45 18,5 C 56 % 1025,8 hPa 0,0 l/m 4,8 km/h (1 Bft) NO 45 9,6 C 23,4 C 4,3 km/h (1 Bft)
21.08.2013 17:50 18,4 C 57 % 1025,8 hPa 0,0 l/m 3,7 km/h (1 Bft) N-NW 337 9,7 C 23,9 C 5,8 km/h (2 Bft)
21.08.2013 17:55 18,4 C 56 % 1025,8 hPa 0,0 l/m 4,2 km/h (1 Bft) W-NW 292 9,5 C 23,8 C 2,9 km/h (1 Bft)
21.08.2013 18:00 18,3 C 57 % 1025,8 hPa 0,0 l/m 4,7 km/h (1 Bft) N 360 9,6 C 23,7 C 7,9 km/h (2 Bft)
21.08.2013 18:05 18,2 C 57 % 1025,6 hPa 0,0 l/m 3,7 km/h (1 Bft) N 360 9,5 C 23,8 C 6,8 km/h (2 Bft)
21.08.2013 18:10 18,0 C 56 % 1025,6 hPa 0,0 l/m 3,7 km/h (1 Bft) NW 315 9,1 C 23,6 C 7,1 km/h (2 Bft)
21.08.2013 18:15 18,0 C 57 % 1025,6 hPa 0,0 l/m 4,0 km/h (1 Bft) O-NO 67 9,4 C 23,2 C 0,0 km/h (0 Bft)
21.08.2013 18:20 17,9 C 58 % 1025,6 hPa 0,0 l/m 3,7 km/h (1 Bft) N-NW 337 9,5 C 23,2 C 3,4 km/h (1 Bft)
21.08.2013 18:25 17,8 C 58 % 1024,9 hPa 0,0 l/m 3,4 km/h (1 Bft) N-NW 337 9,4 C 23,2 C 4,5 km/h (1 Bft)
21.08.2013 18:30 17,5 C 58 % 1024,9 hPa 0,0 l/m 2,6 km/h (1 Bft) N-NO 22 9,1 C 22,8 C 3,1 km/h (1 Bft)
21.08.2013 18:35 17,4 C 59 % 1024,9 hPa 0,0 l/m 2,6 km/h (1 Bft) N-NW 337 9,3 C 23,2 C 6,6 km/h (2 Bft)
21.08.2013 18:40 17,5 C 58 % 1024,9 hPa 0,0 l/m 3,4 km/h (1 Bft) W-NW 292 9,1 C 23,0 C 3,9 km/h (1 Bft)
21.08.2013 18:45 17,4 C 57 % 1024,8 hPa 0,0 l/m 3,7 km/h (1 Bft) N 360 8,8 C 22,6 C 8,5 km/h (2 Bft)
21.08.2013 18:50 17,3 C 59 % 1024,8 hPa 0,0 l/m 3,1 km/h (1 Bft) NW 315 9,2 C 22,4 C 1,9 km/h (1 Bft)
21.08.2013 18:55 17,3 C 59 % 1024,8 hPa 0,0 l/m 2,9 km/h (1 Bft) N-NW 337 9,2 C 22,9 C 5,8 km/h (2 Bft)
21.08.2013 19:00 17,1 C 59 % 1024,8 hPa 0,0 l/m 3,2 km/h (1 Bft) N 360 9,0 C 22,8 C 4,8 km/h (1 Bft)
21.08.2013 19:05 16,9 C 59 % 1024,7 hPa 0,0 l/m 3,7 km/h (1 Bft) W 270 8,8 C 22,0 C 5,8 km/h (2 Bft)
21.08.2013 19:10 16,6 C 60 % 1024,7 hPa 0,0 l/m 2,7 km/h (1 Bft) O 90 8,8 C 20,1 C 0,0 km/h (0 Bft)
21.08.2013 19:15 16,3 C 60 % 1024,7 hPa 0,0 l/m 1,9 km/h (1 Bft) N-NW 337 8,5 C 19,1 C 2,3 km/h (1 Bft)
21.08.2013 19:20 16,0 C 60 % 1024,7 hPa 0,0 l/m 1,1 km/h (1 Bft) O-NO 67 8,2 C 18,1 C 3,1 km/h (1 Bft)
21.08.2013 19:25 15,9 C 63 % 1024,6 hPa 0,0 l/m 1,3 km/h (1 Bft) O 90 8,9 C 17,6 C 1,6 km/h (1 Bft)
21.08.2013 19:30 15,7 C 64 % 1024,6 hPa 0,0 l/m 1,3 km/h (1 Bft) NO 45 8,9 C 17,0 C 3,1 km/h (1 Bft)
21.08.2013 19:35 15,5 C 64 % 1024,6 hPa 0,0 l/m 0,8 km/h (0 Bft) NO 45 8,7 C 16,6 C 0,0 km/h (0 Bft)
21.08.2013 19:40 15,3 C 65 % 1024,6 hPa 0,0 l/m 1,1 km/h (1 Bft) NO 45 8,8 C 16,2 C 1,8 km/h (1 Bft)
21.08.2013 19:45 15,2 C 66 % 1024,8 hPa 0,0 l/m 1,6 km/h (1 Bft) O-SO 112 8,9 C 16,0 C 1,8 km/h (1 Bft)
21.08.2013 19:50 15,1 C 66 % 1024,8 hPa 0,0 l/m 1,9 km/h (1 Bft) O 90 8,8 C 15,8 C 2,3 km/h (1 Bft)
21.08.2013 19:55 15,0 C 66 % 1024,8 hPa 0,0 l/m 1,8 km/h (1 Bft) O-SO 112 8,7 C 15,6 C 0,0 km/h (0 Bft)
21.08.2013 20:00 15,0 C 66 % 1024,8 hPa 0,0 l/m 1,8 km/h (1 Bft) O 90 8,7 C 15,5 C 2,6 km/h (1 Bft)
21.08.2013 20:05 15,1 C 66 % 1024,9 hPa 0,0 l/m 1,6 km/h (1 Bft) NO 45 8,8 C 15,5 C 3,2 km/h (1 Bft)
21.08.2013 20:10 15,2 C 66 % 1024,9 hPa 0,0 l/m 1,8 km/h (1 Bft) O-SO 112 8,9 C 15,5 C 2,4 km/h (1 Bft)
21.08.2013 20:15 15,1 C 67 % 1024,9 hPa 0,0 l/m 2,3 km/h (1 Bft) O 90 9,0 C 15,7 C 3,1 km/h (1 Bft)
21.08.2013 20:20 15,2 C 67 % 1024,9 hPa 0,0 l/m 1,9 km/h (1 Bft) S 180 9,1 C 15,6 C 1,6 km/h (1 Bft)
21.08.2013 20:25 15,1 C 66 % 1024,8 hPa 0,0 l/m 1,6 km/h (1 Bft) O 90 8,8 C 15,5 C 3,2 km/h (1 Bft)
21.08.2013 20:30 14,9 C 68 % 1024,8 hPa 0,0 l/m 1,9 km/h (1 Bft) NO 45 9,0 C 15,4 C 3,9 km/h (1 Bft)
21.08.2013 20:35 14,9 C 68 % 1024,8 hPa 0,0 l/m 2,4 km/h (1 Bft) O 90 9,0 C 15,3 C 2,7 km/h (1 Bft)
21.08.2013 20:40 14,6 C 68 % 1024,8 hPa 0,0 l/m 2,3 km/h (1 Bft) O 90 8,8 C 15,1 C 2,6 km/h (1 Bft)
21.08.2013 20:45 14,6 C 68 % 1024,8 hPa 0,0 l/m 1,9 km/h (1 Bft) O 90 8,8 C 15,0 C 1,6 km/h (1 Bft)
21.08.2013 20:50 14,7 C 69 % 1024,8 hPa 0,0 l/m 2,3 km/h (1 Bft) NO 45 9,1 C 14,8 C 2,7 km/h (1 Bft)
21.08.2013 20:55 14,6 C 68 % 1024,8 hPa 0,0 l/m 2,6 km/h (1 Bft) O 90 8,8 C 14,7 C 3,7 km/h (1 Bft)
21.08.2013 21:00 14,5 C 69 % 1024,8 hPa 0,0 l/m 2,9 km/h (1 Bft) O-NO 67 8,9 C 14,6 C 3,4 km/h (1 Bft)
21.08.2013 21:05 14,2 C 70 % 1024,9 hPa 0,0 l/m 2,9 km/h (1 Bft) O 90 8,8 C 14,5 C 3,7 km/h (1 Bft)
21.08.2013 21:10 14,0 C 71 % 1024,9 hPa 0,0 l/m 2,9 km/h (1 Bft) O 90 8,8 C 14,3 C 2,3 km/h (1 Bft)
21.08.2013 21:15 14,1 C 70 % 1024,9 hPa 0,0 l/m 2,9 km/h (1 Bft) N-NO 22 8,7 C 14,2 C 2,6 km/h (1 Bft)
21.08.2013 21:20 13,9 C 71 % 1024,9 hPa 0,0 l/m 2,4 km/h (1 Bft) O 90 8,7 C 14,0 C 4,2 km/h (1 Bft)
21.08.2013 21:25 13,8 C 71 % 1024,9 hPa 0,0 l/m 2,7 km/h (1 Bft) NO 45 8,6 C 13,8 C 3,2 km/h (1 Bft)
21.08.2013 21:30 13,5 C 72 % 1024,9 hPa 0,0 l/m 3,2 km/h (1 Bft) O 90 8,6 C 13,6 C 3,2 km/h (1 Bft)
21.08.2013 21:35 13,3 C 72 % 1024,9 hPa 0,0 l/m 3,4 km/h (1 Bft) NO 45 8,4 C 13,3 C 3,5 km/h (1 Bft)
21.08.2013 21:40 13,4 C 72 % 1024,9 hPa 0,0 l/m 3,1 km/h (1 Bft) NO 45 8,5 C 13,1 C 2,4 km/h (1 Bft)
21.08.2013 21:45 13,2 C 72 % 1024,7 hPa 0,0 l/m 3,1 km/h (1 Bft) O 90 8,3 C 12,9 C 4,0 km/h (1 Bft)
21.08.2013 21:50 13,0 C 73 % 1024,7 hPa 0,0 l/m 2,4 km/h (1 Bft) O 90 8,3 C 12,5 C 2,1 km/h (1 Bft)
21.08.2013 21:55 12,7 C 74 % 1024,7 hPa 0,0 l/m 1,8 km/h (1 Bft) O 90 8,2 C 12,2 C 0,0 km/h (0 Bft)
21.08.2013 22:00 12,1 C 75 % 1024,7 hPa 0,0 l/m 0,5 km/h (0 Bft) O-SO 112 7,8 C 11,6 C 0,0 km/h (0 Bft)
21.08.2013 22:05 11,7 C 75 % 1024,7 hPa 0,0 l/m 0,0 km/h (0 Bft) NO 45 7,4 C 11,2 C 0,0 km/h (0 Bft)
21.08.2013 22:10 11,4 C 76 % 1024,7 hPa 0,0 l/m 0,0 km/h (0 Bft) O-NO 67 7,3 C 10,7 C 0,0 km/h (0 Bft)
21.08.2013 22:15 11,5 C 76 % 1024,7 hPa 0,0 l/m 0,2 km/h (0 Bft) NO 45 7,4 C 10,6 C 0,0 km/h (0 Bft)
21.08.2013 22:20 11,3 C 77 % 1024,7 hPa 0,0 l/m 0,2 km/h (0 Bft) NO 45 7,4 C 10,4 C 0,0 km/h (0 Bft)
21.08.2013 22:25 11,2 C 77 % 1024,5 hPa 0,0 l/m 0,0 km/h (0 Bft) NO 45 7,3 C 10,3 C 0,0 km/h (0 Bft)
21.08.2013 22:30 11,0 C 77 % 1024,5 hPa 0,0 l/m 0,0 km/h (0 Bft) NO 45 7,1 C 10,1 C 0,0 km/h (0 Bft)
21.08.2013 22:35 11,0 C 78 % 1024,5 hPa 0,0 l/m 0,0 km/h (0 Bft) NO 45 7,3 C 10,0 C 0,0 km/h (0 Bft)
21.08.2013 22:40 11,0 C 78 % 1024,5 hPa 0,0 l/m 0,5 km/h (0 Bft) NO 45 7,3 C 10,0 C 1,8 km/h (1 Bft)
21.08.2013 22:45 11,1 C 79 % 1024,5 hPa 0,0 l/m 1,3 km/h (1 Bft) NO 45 7,6 C 10,0 C 1,9 km/h (1 Bft)
21.08.2013 22:50 11,0 C 79 % 1024,5 hPa 0,0 l/m 1,0 km/h (0 Bft) NO 45 7,5 C 9,9 C 0,0 km/h (0 Bft)
21.08.2013 22:55 10,6 C 79 % 1024,5 hPa 0,0 l/m 0,3 km/h (0 Bft) NO 45 7,1 C 9,7 C 0,0 km/h (0 Bft)
21.08.2013 23:00 10,7 C 80 % 1024,5 hPa 0,0 l/m 0,0 km/h (0 Bft) NO 45 7,4 C 9,4 C 0,0 km/h (0 Bft)
21.08.2013 23:05 10,1 C 80 % 1024,2 hPa 0,0 l/m 0,0 km/h (0 Bft) N-NO 22 6,8 C 9,3 C 0,0 km/h (0 Bft)
21.08.2013 23:10 9,9 C 81 % 1024,2 hPa 0,0 l/m 0,0 km/h (0 Bft) N-NO 22 6,8 C 9,0 C 0,0 km/h (0 Bft)
21.08.2013 23:15 9,6 C 81 % 1024,2 hPa 0,0 l/m 0,0 km/h (0 Bft) N-NO 22 6,5 C 8,9 C 0,0 km/h (0 Bft)
21.08.2013 23:20 9,6 C 82 % 1024,2 hPa 0,0 l/m 0,0 km/h (0 Bft) NO 45 6,7 C 8,7 C 0,0 km/h (0 Bft)
21.08.2013 23:25 9,8 C 83 % 1024,3 hPa 0,0 l/m 0,0 km/h (0 Bft) NO 45 7,1 C 8,6 C 1,8 km/h (1 Bft)
21.08.2013 23:30 9,8 C 83 % 1024,3 hPa 0,0 l/m 0,2 km/h (0 Bft) NO 45 7,1 C 8,7 C 0,0 km/h (0 Bft)
21.08.2013 23:35 9,7 C 83 % 1024,3 hPa 0,0 l/m 0,3 km/h (0 Bft) O-NO 67 7,0 C 8,7 C 2,4 km/h (1 Bft)
21.08.2013 23:40 9,5 C 84 % 1024,3 hPa 0,0 l/m 0,3 km/h (0 Bft) NO 45 6,9 C 8,6 C 0,0 km/h (0 Bft)
21.08.2013 23:45 9,6 C 85 % 1024,1 hPa 0,0 l/m 0,8 km/h (0 Bft) O-NO 67 7,2 C 8,5 C 3,4 km/h (1 Bft)
21.08.2013 23:50 10,0 C 85 % 1024,1 hPa 0,0 l/m 2,3 km/h (1 Bft) O 90 7,6 C 8,8 C 2,7 km/h (1 Bft)
21.08.2013 23:55 9,7 C 85 % 1024,1 hPa 0,0 l/m 2,6 km/h (1 Bft) O-NO 67 7,3 C 8,8 C 2,1 km/h (1 Bft)
_ Min-Zeit 03:40 15:45 23:55 - 23:25 - - 03:40 03:45 23:40
Minimum _ 5,7 C 46 % 1024,1 hPa - 0,0 km/h (0 Bft) - - 4,5 C 5,3 C 0,0 km/h (0 Bft)
_ Max-Zeit 15:20 08:15 00:20 23:55 12:00 - - 10:10 16:30 15:30
Maximum _ 21,8 C 92 % 1028,8 hPa 0,0 l/m 7,1 km/h
N-NO (2 Bft)
- - 11,2 C 24,6 C 14,3 km/h
W-NW (3 Bft)
Durchschnitt _ 13,4 C 72 % 1026,5 hPa #0,0 l/m 2,5 km/h (1 Bft) N-NW - 7,9 C 14,2 C 3,3 km/h (1 Bft)